User: anonymous   Login
Location: Noordwijk
(52.2400°N, 4.4500°E)
Time: 08:50:49
(UTC+00:00)
Language:

EO-88 - Orbit

View from above orbital plane
View from above orbital plane
View from above satellite
View from above satellite

Ground track
Ground track

The orbit data is extracted from the following two-line orbital elements,

1 42017U 17008BX  22330.70399000  .00021382  00000-0  51499-3 0  9995
2 42017  97.2489  34.9104 0004587  39.6929 320.4653 15.41272163322000
Epoch (UTC): 26 November 2022 16:53:44
Eccentricity: 0.0004587
inclination: 97.2489°
perigee height: 439 km
apogee height: 445 km
right ascension of ascending node: 34.9104°
argument of perigee: 39.6929°
revolutions per day: 15.41272163
mean anomaly at epoch: 320.4653°
orbit number at epoch: 32200

The dashed part of the orbit path shows where the satellite is in the earth's shadow,  

DLR